N7DTY Weather Reports


time (UTC)temp
C
wind
direction
speed
KPH
gust
KPH
rain 1hr
cm
rain 24hr
cm
rain mn
cm
humidity
%
barometer
mb
20260508133003 11 214 1.6 20.9 0.00 0.00 0.00 86 1016.5
20260508131559 11 200 4.8 22.5 0.00 0.00 0.00 88 1016.5
20260508130058 11 207 3.2 11.3 0.00 0.00 0.00 88 1016.3
20260508124556 11 193 3.2 11.3 0.00 0.00 0.00 88 1016.4
20260508123106 10 184 3.2 6.4 0.00 0.00 0.00 88 1016.3
20260508121557 10 126 1.6 8.0 0.00 0.00 0.00 90 1016.2
20260508120053 10 229 0.0 3.2 0.00 0.00 0.00 89 1016.1
20260508114554 10 248 0.0 1.6 0.00 0.00 0.00 89 1015.9
20260508113153 10 248 0.0 3.2 0.00 0.00 0.00 89 1016.0
20260508111550 10 188 0.0 6.4 0.00 0.00 0.00 90 1016.0
20260508110049 10 190 1.6 4.8 0.00 0.00 0.00 90 1016.0
20260508104548 10 190 0.0 1.6 0.00 0.00 0.00 89 1015.9
20260508103050 10 190 0.0 3.2 0.00 0.00 0.00 89 1015.9
20260508101549 10 199 0.0 3.2 0.00 0.00 0.00 88 1015.8
20260508100047 10 201 0.0 3.2 0.00 0.00 0.00 87 1015.8
20260508094606 10 201 0.0 0.0 0.00 0.00 0.00 87 1015.7
20260508093046 10 201 0.0 0.0 0.00 0.00 0.00 86 1015.7
20260508091546 10 201 0.0 3.2 0.00 0.00 0.00 86 1015.7
20260508090049 10 180 0.0 1.6 0.00 0.00 0.00 86 1015.7
20260508084543 10 180 0.0 0.0 0.00 0.00 0.00 86 1015.8
20260508083042 10 180 0.0 0.0 0.00 0.00 0.00 85 1015.8
20260508081559 11 180 0.0 0.0 0.00 0.00 0.00 84 1016.0
20260508080036 11 180 0.0 0.0 0.00 0.00 0.00 82 1016.0
20260508074535 11 180 0.0 0.0 0.00 0.00 0.00 82 1016.1
20260508073036 11 180 0.0 0.0 0.00 0.00 0.00 82 1016.2
20260508071541 11 180 0.0 4.8 0.00 0.00 0.00 81 1016.2
20260508070028 12 117 3.2 14.5 0.00 0.00 0.00 80 1016.3
20260508064530 12 163 3.2 9.7 0.00 0.00 0.00 81 1016.3
20260508063043 12 180 3.2 6.4 0.00 0.00 0.00 81 1016.3
20260508061526 12 198 0.0 8.0 0.00 0.00 0.00 83 1016.2
20260508060029 12 209 1.6 6.4 0.00 0.00 0.00 81 1016.2
20260508054525 11 175 0.0 3.2 0.00 0.00 0.00 82 1016.2
20260508053025 12 173 0.0 8.0 0.00 0.00 0.00 81 1016.2
20260508051523 12 178 0.0 6.4 0.00 0.00 0.00 80 1016.2
20260508050022 12 130 3.2 12.9 0.00 0.00 0.00 80 1016.3
20260508044526 12 204 3.2 8.0 0.00 0.00 0.00 79 1016.5
20260508043022 12 211 3.2 11.3 0.00 0.00 0.00 78 1016.6
20260508041519 12 166 4.8 8.0 0.00 0.00 0.00 77 1016.6
20260508040019 12 184 1.6 8.0 0.00 0.00 0.00 78 1016.7
20260508034518 12 144 0.0 8.0 0.00 0.00 0.00 78 1016.6
20260508033018 13 184 1.6 8.0 0.00 0.00 0.00 77 1016.5
20260508031516 13 170 1.6 8.0 0.00 0.00 0.00 76 1016.5
20260508030015 13 170 0.0 6.4 0.00 0.00 0.00 77 1016.7
20260508024530 13 195 1.6 6.4 0.00 0.00 0.00 76 1016.7
20260508023022 14 163 1.6 8.0 0.00 0.00 0.00 77 1016.6
20260508021513 14 171 1.6 6.4 0.00 0.00 0.00 76 1016.8
20260508020011 14 193 1.6 8.0 0.00 0.00 0.00 76 1016.7
20260508014510 15 193 3.2 11.3 0.00 0.00 0.00 76 1016.9
20260508013008 15 142 3.2 8.0 0.00 0.00 0.00 74 1017.1
20260508011506 15 144 4.8 14.5 0.00 0.00 0.00 75 1017.2
20260508010005 15 351 3.2 8.0 0.00 0.00 0.00 74 1017.3
20260508004504 15 144 3.2 14.5 0.00 0.00 0.00 74 1017.5
20260508003005 15 181 3.2 9.7 0.00 0.00 0.00 77 1017.5
20260508001503 15 159 1.6 9.7 0.00 0.00 0.00 76 1017.4
20260508000002 15 162 3.2 9.7 0.00 0.00 0.00 73 1017.4
20260507234502 15 202 4.8 11.3 0.00 0.00 0.00 73 1017.5
20260507233100 15 205 4.8 11.3 0.00 0.00 0.00 72 1017.5
20260507231601 16 191 3.2 11.3 0.00 0.00 0.00 72 1017.6
20260507230104 15 184 3.2 11.3 0.00 0.00 0.00 73 1017.7
20260507224600 15 207 6.4 14.5 0.00 0.00 0.00 73 1017.9
20260507223056 15 203 6.4 12.9 0.00 0.00 0.00 73 1017.9
20260507221554 15 156 3.2 12.9 0.00 0.00 0.00 74 1018.1
20260507220152 16 175 4.8 12.9 0.00 0.00 0.00 72 1018.3
20260507214602 16 178 4.8 14.5 0.00 0.00 0.00 72 1018.6
20260507213046 16 183 4.8 12.9 0.00 0.00 0.00 72 1018.8
20260507211549 16 171 4.8 12.9 0.00 0.00 0.00 73 1018.9
20260507210045 16 209 3.2 8.0 0.00 0.00 0.00 74 1019.1
20260507204543 15 185 3.2 9.7 0.00 0.00 0.00 76 1019.3
20260507203056 15 151 6.4 12.9 0.00 0.00 0.00 75 1019.6
20260507201551 15 144 4.8 14.5 0.00 0.00 0.00 77 1019.8
20260507200053 15 159 4.8 14.5 0.00 0.00 0.00 76 1019.8
20260507194539 15 155 1.6 11.3 0.00 0.00 0.00 78 1019.8
20260507193044 15 198 3.2 11.3 0.00 0.00 0.00 76 1019.9
20260507191534 15 185 3.2 8.0 0.00 0.00 0.00 76 1020.0
20260507190032 13 193 1.6 8.0 0.00 0.00 0.00 79 1020.1
20260507184530 13 184 1.6 8.0 0.00 0.00 0.00 77 1020.3
20260507183030 13 171 3.2 8.0 0.00 0.00 0.00 78 1020.3
20260507181532 13 175 3.2 11.3 0.00 0.00 0.00 78 1020.4
20260507180036 12 169 3.2 9.7 0.00 0.00 0.00 77 1020.4
20260507174528 13 153 1.6 8.0 0.00 0.00 0.00 78 1020.5
20260507173032 13 153 1.6 8.0 0.00 0.00 0.00 75 1020.4
20260507171528 13 170 3.2 6.4 0.00 0.00 0.00 73 1020.4
20260507170028 13 194 0.0 6.4 0.00 0.00 0.00 75 1020.4
20260507164526 13 163 0.0 6.4 0.00 0.00 0.00 75 1020.3
20260507163022 13 186 1.6 8.0 0.00 0.00 0.00 77 1020.4
20260507161521 12 199 1.6 4.8 0.00 0.00 0.00 76 1020.4
20260507160020 13 196 1.6 8.0 0.00 0.00 0.00 75 1020.4
20260507154515 12 182 1.6 12.9 0.00 0.00 0.00 78 1020.6
20260507153012 12 165 3.2 9.7 0.00 0.00 0.00 78 1020.7
20260507151511 11 209 0.0 3.2 0.00 0.00 0.00 80 1020.6
20260507150019 11 171 1.6 9.7 0.00 0.00 0.00 83 1020.6
20260507144513 11 166 1.6 8.0 0.00 0.00 0.00 84 1020.7
20260507143001 11 150 3.2 8.0 0.00 0.00 0.00 84 1020.5
20260507141604 11 179 0.0 4.8 0.00 0.00 0.00 84 1020.5
20260507140101 11 161 0.0 4.8 0.00 0.00 0.00 84 1020.5
20260507134604 11 181 0.0 3.2 0.00 0.00 0.00 83 1020.5